Weather History for Jordan, MT

Change the Weather History Date:

Sunday, February 9, 2014

  Actual Average Record
Temperature  
Mean Temperature -7 °F 21 °F  
Max Temperature 6 °F 33 °F 57 °F (1984)
Min Temperature -20 °F 9 °F -39 °F (1936)
Degree Days  
Heating Degree Days 72 44  
Month to date heating degree days 626 405  
Since 1 July heating degree days 5473 5335  
Cooling Degree Days 0 0  
Month to date cooling degree days 0 0  
Year to date cooling degree days 0 0  
Moisture  
Dew Point -13 °F    
Average Humidity 78    
Maximum Humidity 86    
Minimum Humidity 69    
Precipitation  
Precipitation 0.00 in 0.01 in 0.14 in (1960)
Month to date precipitation 0.04 0.07  
Year to date precipitation 0.26 0.30  
Snow  
Snow 0.00 in - - ()
Month to date snowfall 0.0  
Since 1 July snowfall 0.0  
Snow Depth 0.00 in    
Sea Level Pressure  
Sea Level Pressure 30.48 in    
Wind  
Wind Speed 5 mph (SE)    
Max Wind Speed 9 mph    
Max Gust Speed 11 mph    
T = Trace of Precipitation, MM = Missing Value Source: NWS Daily Summary

Daily Weather History Graph

Daily Weather History Graph

Search for Another Location

Airport:

Trip Planner

Search our weather history database for the weather conditions in past years. The results will help you decide how hot, cold, wet, or windy it might be!

Date:

Astronomy

Feb. 09, 2014 Rise Set
Actual Time 7:22 AM MST 5:22 PM MST
Civil Twilight 6:50 AM MST 5:54 PM MST
Nautical Twilight 6:14 AM MST 6:30 PM MST
Astronomical Twilight 5:38 AM MST 7:06 PM MST
Moon 12:57 PM MST (2/9) 3:36 AM MST (2/9)
Length of Visible Light 11h 04m
Length of Day
10h 00m
Waxing Gibbous, 77% of the Moon is Illuminated
Feb 9
Waxing Gibbous
Feb 14
Full
Feb 22
Last Quarter
Mar 1
New
Mar 8
First Quarter

Hourly Weather History & Observations

Time (MST) Temp. Windchill Dew Point Humidity Pressure Visibility Wind Dir Wind Speed Gust Speed Precip Events Conditions
12:48 AM -17.0 °F -29.7 °F -20.9 °F 82% 30.53 in - West 4.6 mph - N/A   Unknown
1:48 AM -18.9 °F -35.8 °F -24.0 °F 78% 30.52 in - WNW 6.9 mph - N/A   Unknown
2:48 AM -18.0 °F -30.9 °F -24.0 °F 74% 30.50 in - WNW 4.6 mph - N/A   Unknown
3:48 AM -18.0 °F - -23.1 °F 78% 30.49 in - Calm Calm - N/A   Unknown
4:48 AM -17.0 °F - -20.9 °F 82% 30.48 in - Calm Calm - N/A   Unknown
5:48 AM -17.0 °F -27.2 °F -20.9 °F 82% 30.50 in - West 3.5 mph - N/A   Unknown
6:48 AM -18.0 °F -28.5 °F -23.1 °F 78% 30.53 in - West 3.5 mph - N/A   Unknown
7:48 AM -15.0 °F - -20.0 °F 78% 30.56 in - Calm Calm - N/A   Unknown
8:48 AM -11.9 °F - -17.0 °F 78% 30.56 in - Calm Calm - N/A   Unknown
9:48 AM -6.0 °F - -11.0 °F 79% 30.53 in - Calm Calm - N/A   Unknown
10:48 AM -2.9 °F -15.0 °F -8.0 °F 79% 30.53 in - ESE 5.8 mph - N/A   Unknown
11:48 AM -0.0 °F -9.9 °F -5.1 °F 79% 30.52 in - ESE 4.6 mph - N/A   Unknown
1:48 PM 5.0 °F -6.9 °F -2.9 °F 70% 30.48 in - SSE 6.9 mph - N/A   Unknown
2:48 PM 6.1 °F -7.8 °F -2.9 °F 67% 30.47 in - South 9.2 mph - N/A   Unknown
3:48 PM 5.0 °F -8.1 °F -2.9 °F 70% 30.46 in - ESE 8.1 mph - N/A   Unknown
4:48 PM 3.0 °F -9.3 °F -4.0 °F 73% 30.46 in - ESE 6.9 mph - N/A   Unknown
5:48 PM -2.0 °F -12.2 °F -8.0 °F 76% 30.48 in - ESE 4.6 mph - N/A   Unknown
6:48 PM -5.1 °F -17.6 °F -9.0 °F 83% 30.48 in - East 5.8 mph - N/A   Unknown
7:48 PM -4.0 °F -17.8 °F -9.0 °F 79% 30.45 in - ESE 6.9 mph - N/A   Unknown
8:48 PM -7.1 °F -19.9 °F -11.0 °F 83% 30.43 in - ESE 5.8 mph - N/A   Unknown
9:48 PM -6.0 °F -18.6 °F -11.0 °F 79% 30.41 in - ESE 5.8 mph - N/A   Unknown
10:48 PM -7.1 °F -18.1 °F -11.9 °F 79% 30.40 in - East 4.6 mph - N/A   Unknown
11:48 PM -6.0 °F -18.6 °F -11.0 °F 79% 30.38 in - East 5.8 mph - N/A   Unknown